Hourly Weather Kozlovichi

Today, 20 October, Tuesday

Time Temperature Precipitation Wind Pressure Humidity
00:00 +1°C° 0.3 mm 4 mps 749 mmHg 89%
01:00 +1°C° 0.3 mm 4 mps 750 mmHg 91%
02:00 +1°C° 0 mm 4 mps 750 mmHg 91%
03:00 +1°C° 0.3 mm 4 mps 750 mmHg 90%
04:00 +1°C° 0.3 mm 4 mps 750 mmHg 88%
05:00 +1°C° 0.3 mm 5 mps 751 mmHg 86%
06:00 +1°C° 0 mm 5 mps 751 mmHg 87%
07:00 0°C° 0 mm 5 mps 752 mmHg 88%
08:00 0°C° 0 mm 4 mps 753 mmHg 89%
09:00 +1°C° 0 mm 4 mps 754 mmHg 85%
10:00 +1°C° 0 mm 4 mps 754 mmHg 80%
11:00 +3°C° 0 mm 4 mps 755 mmHg 76%
12:00 +3°C° 0 mm 4 mps 756 mmHg 74%
13:00 +4°C° 0 mm 4 mps 756 mmHg 71%
14:00 +4°C° 0 mm 4 mps 757 mmHg 69%
15:00 +3°C° 0 mm 3 mps 757 mmHg 72%
16:00 +3°C° 0 mm 3 mps 757 mmHg 74%
17:00 +3°C° 0 mm 2 mps 758 mmHg 76%
18:00 +3°C° 0 mm 2 mps 758 mmHg 78%
19:00 +3°C° 0 mm 1 mps 758 mmHg 80%
20:00 +2°C° 0 mm 1 mps 758 mmHg 82%
21:00 +2°C° 0 mm 1 mps 758 mmHg 83%
22:00 +2°C° 0 mm 1 mps 758 mmHg 84%
23:00 +2°C° 0 mm 1 mps 758 mmHg 84%

Tomorrow, 21 October, Wednesday

Time Temperature Precipitation Wind Pressure Humidity
00:00 +3°C° 0 mm 1 mps 758 mmHg 86%
01:00 +2°C° 0 mm 2 mps 758 mmHg 87%
02:00 +2°C° 0 mm 2 mps 758 mmHg 88%
03:00 +3°C° 0 mm 2 mps 757 mmHg 90%
04:00 +3°C° 0 mm 2 mps 757 mmHg 91%
05:00 +3°C° 0 mm 2 mps 756 mmHg 92%
06:00 +3°C° 0.1 mm 2 mps 756 mmHg 92%
07:00 +3°C° 0.1 mm 2 mps 755 mmHg 93%
08:00 +2°C° 0.1 mm 3 mps 755 mmHg 93%
09:00 +3°C° 0.2 mm 3 mps 755 mmHg 93%
10:00 +3°C° 0.2 mm 3 mps 754 mmHg 93%
11:00 +3°C° 0.2 mm 3 mps 754 mmHg 93%
12:00 +3°C° 0.1 mm 3 mps 754 mmHg 93%
13:00 +5°C° 0.1 mm 2 mps 754 mmHg 93%
14:00 +5°C° 0.1 mm 2 mps 754 mmHg 93%
15:00 +5°C° 0.1 mm 2 mps 753 mmHg 94%
16:00 +5°C° 0.1 mm 2 mps 753 mmHg 95%
17:00 +5°C° 0.1 mm 2 mps 753 mmHg 95%
18:00 +5°C° 0 mm 2 mps 753 mmHg 95%
19:00 +5°C° 0 mm 2 mps 753 mmHg 95%
20:00 +6°C° 0 mm 2 mps 754 mmHg 95%
21:00 +6°C° 0 mm 2 mps 753 mmHg 95%
22:00 +6°C° 0 mm 2 mps 753 mmHg 95%
23:00 +4°C° 0 mm 3 mps 753 mmHg 95%

Day after tomorrow, 22 October, Thursday

Time Temperature Precipitation Wind Pressure Humidity
00:00 +5°C° 0 mm 3 mps 753 mmHg 94%
01:00 +5°C° 0 mm 3 mps 752 mmHg 94%
02:00 +5°C° 0 mm 3 mps 752 mmHg 94%
03:00 +5°C° 0 mm 4 mps 752 mmHg 94%
04:00 +5°C° 0 mm 4 mps 751 mmHg 94%
05:00 +5°C° 0 mm 4 mps 750 mmHg 94%
06:00 +6°C° 0.8 mm 4 mps 749 mmHg 94%
07:00 +6°C° 0.8 mm 5 mps 749 mmHg 94%
08:00 +6°C° 0.8 mm 5 mps 748 mmHg 94%
09:00 +7°C° 0.4 mm 5 mps 748 mmHg 94%
10:00 +8°C° 0.4 mm 5 mps 747 mmHg 93%
11:00 +8°C° 0.4 mm 5 mps 746 mmHg 92%
12:00 +9°C° 0.2 mm 5 mps 746 mmHg 91%
13:00 +9°C° 0.2 mm 5 mps 746 mmHg 89%
14:00 +10°C° 0.2 mm 5 mps 745 mmHg 88%
15:00 +10°C° 0.1 mm 5 mps 745 mmHg 88%
16:00 +11°C° 0.1 mm 6 mps 745 mmHg 87%
17:00 +11°C° 0.1 mm 6 mps 745 mmHg 87%
18:00 +11°C° 0.1 mm 6 mps 745 mmHg 86%
19:00 +11°C° 0.1 mm 6 mps 745 mmHg 85%
20:00 +11°C° 0.1 mm 6 mps 745 mmHg 84%
21:00 +11°C° 0.1 mm 6 mps 746 mmHg 84%
22:00 +11°C° 0.1 mm 6 mps 746 mmHg 84%
23:00 +11°C° 0.1 mm 6 mps 746 mmHg 85%

23 October, Friday

Time Temperature Precipitation Wind Pressure Humidity
00:00 +12°C° 0 mm 5 mps 746 mmHg 85%
01:00 +12°C° 0 mm 5 mps 747 mmHg 86%
02:00 +12°C° 0 mm 4 mps 747 mmHg 87%
03:00 +12°C° 0.1 mm 4 mps 746 mmHg 89%
04:00 +12°C° 0.1 mm 4 mps 746 mmHg 91%
05:00 +12°C° 0.1 mm 4 mps 746 mmHg 93%
06:00 +12°C° 0.2 mm 4 mps 745 mmHg 91%
07:00 +12°C° 0.2 mm 5 mps 744 mmHg 90%
08:00 +13°C° 0.2 mm 5 mps 744 mmHg 88%
09:00 +13°C° 0.1 mm 5 mps 744 mmHg 88%
10:00 +13°C° 0.1 mm 5 mps 744 mmHg 88%
11:00 +13°C° 0.1 mm 5 mps 743 mmHg 87%
12:00 +13°C° 0.4 mm 5 mps 743 mmHg 85%
13:00 +14°C° 0.4 mm 5 mps 743 mmHg 83%
14:00 +14°C° 0.4 mm 5 mps 743 mmHg 81%
15:00 +13°C° 0.5 mm 5 mps 743 mmHg 83%
16:00 +12°C° 0.5 mm 4 mps 742 mmHg 84%
17:00 +12°C° 0.5 mm 4 mps 742 mmHg 86%
18:00 +12°C° 0.4 mm 4 mps 742 mmHg 87%
19:00 +10°C° 0.4 mm 5 mps 742 mmHg 87%
20:00 +10°C° 0.4 mm 5 mps 742 mmHg 87%
21:00 +10°C° 0.1 mm 5 mps 742 mmHg 87%
22:00 +10°C° 0.1 mm 5 mps 742 mmHg 86%
23:00 +10°C° 0.1 mm 5 mps 742 mmHg 85%

24 October, Saturday

Time Temperature Precipitation Wind Pressure Humidity
00:00 +9°C° 0.1 mm 5 mps 743 mmHg 85%
01:00 +10°C° 0.1 mm 4 mps 743 mmHg 85%
02:00 +10°C° 0.1 mm 4 mps 744 mmHg 85%
03:00 +9°C° 0 mm 3 mps 744 mmHg 87%
04:00 +8°C° 0 mm 3 mps 745 mmHg 89%
05:00 +6°C° 0 mm 2 mps 745 mmHg 91%
06:00 +6°C° 0 mm 2 mps 745 mmHg 89%
07:00 +6°C° 0 mm 2 mps 746 mmHg 87%
08:00 +6°C° 0 mm 2 mps 746 mmHg 85%
09:00 +6°C° 0 mm 2 mps 746 mmHg 83%
10:00 +7°C° 0 mm 2 mps 746 mmHg 80%
11:00 +7°C° 0 mm 2 mps 747 mmHg 77%
12:00 +8°C° 0 mm 1 mps 747 mmHg 77%
13:00 +9°C° 0 mm 1 mps 747 mmHg 78%
14:00 +9°C° 0 mm 1 mps 747 mmHg 78%
15:00 +8°C° 0 mm 1 mps 746 mmHg 81%
16:00 +8°C° 0 mm 1 mps 746 mmHg 84%
17:00 +8°C° 0 mm 1 mps 746 mmHg 88%
18:00 +8°C° 0 mm 1 mps 746 mmHg 88%
19:00 +8°C° 0 mm 1 mps 746 mmHg 89%
20:00 +8°C° 0 mm 1 mps 746 mmHg 89%
21:00 +8°C° 0.5 mm 1 mps 747 mmHg 91%
22:00 +8°C° 0.5 mm 1 mps 747 mmHg 92%
23:00 +8°C° 0.5 mm 1 mps 747 mmHg 93%

25 October, Sunday

Time Temperature Precipitation Wind Pressure Humidity
00:00 +7°C° 0.3 mm 1 mps 747 mmHg 93%
01:00 +6°C° 0.3 mm 2 mps 748 mmHg 93%
02:00 +6°C° 0.3 mm 2 mps 748 mmHg 93%
03:00 +5°C° 0 mm 2 mps 749 mmHg 92%
04:00 +5°C° 0 mm 2 mps 749 mmHg 91%
05:00 +5°C° 0 mm 2 mps 750 mmHg 91%
06:00 +4°C° 0 mm 2 mps 750 mmHg 91%
07:00 +4°C° 0 mm 2 mps 751 mmHg 92%
08:00 +4°C° 0 mm 1 mps 752 mmHg 92%
09:00 +4°C° 0 mm 2 mps 752 mmHg 87%
10:00 +5°C° 0 mm 2 mps 753 mmHg 83%
11:00 +6°C° 0 mm 2 mps 753 mmHg 78%
12:00 +7°C° 0 mm 2 mps 753 mmHg 75%
13:00 +7°C° 0 mm 2 mps 754 mmHg 73%
14:00 +7°C° 0 mm 2 mps 754 mmHg 70%
15:00 +6°C° 0 mm 2 mps 754 mmHg 75%
16:00 +5°C° 0 mm 2 mps 754 mmHg 81%
17:00 +5°C° 0 mm 1 mps 755 mmHg 86%
18:00 +5°C° 0 mm 1 mps 755 mmHg 88%
19:00 +5°C° 0 mm 1 mps 755 mmHg 89%
20:00 +5°C° 0 mm 1 mps 756 mmHg 91%
21:00 +3°C° 0 mm 2 mps 756 mmHg 92%
22:00 +3°C° 0 mm 2 mps 756 mmHg 93%
23:00 +3°C° 0 mm 2 mps 756 mmHg 94%

26 October, Monday

Time Temperature Precipitation Wind Pressure Humidity
00:00 +3°C° 0 mm 2 mps 756 mmHg 94%
01:00 +3°C° 0 mm 2 mps 756 mmHg 95%
02:00 +3°C° 0 mm 2 mps 756 mmHg 96%
03:00 +4°C° 0 mm 2 mps 756 mmHg 95%
04:00 +4°C° 0 mm 2 mps 756 mmHg 95%
05:00 +5°C° 0 mm 2 mps 756 mmHg 94%
06:00 +5°C° 0 mm 2 mps 756 mmHg 94%
07:00 +5°C° 0 mm 2 mps 756 mmHg 95%
08:00 +5°C° 0 mm 2 mps 756 mmHg 95%
09:00 +6°C° 0 mm 2 mps 756 mmHg 93%
10:00 +7°C° 0 mm 2 mps 756 mmHg 92%
11:00 +7°C° 0 mm 2 mps 756 mmHg 90%
12:00 +7°C° 0 mm 2 mps 756 mmHg 89%
13:00 +8°C° 0 mm 2 mps 756 mmHg 88%
14:00 +8°C° 0 mm 2 mps 756 mmHg 86%
15:00 +8°C° 0 mm 2 mps 756 mmHg 87%
16:00 +7°C° 0 mm 2 mps 756 mmHg 89%
17:00 +8°C° 0 mm 1 mps 756 mmHg 90%
18:00 +8°C° 0 mm 1 mps 756 mmHg 90%
19:00 +8°C° 0 mm 1 mps 756 mmHg 89%
20:00 +7°C° 0 mm 0 mps 756 mmHg 89%
21:00 +7°C° 0 mm 1 mps 756 mmHg 90%
22:00 +7°C° 0 mm 1 mps 756 mmHg 91%
23:00 +6°C° 0 mm 1 mps 756 mmHg 92%
Show more